Regional Weather Roundup
Issued by NWS

Home | Current Version | Previous Version | Graphics & Text | Print | Product List | Glossary On
Versions: 1 2 3 4 5 6 7 8 9 10 11 12 13 14 15 16 17 18 19 20 21 22 23 24 25 26 27 28 29 30 31 32 33 34 35 36 37 38 39 40 41 42 43 44 45 46 47 48 49 50
000
ASUS43 KLMK 021002
RWRKY
KENTUCKY REGIONAL WEATHER ROUNDUP
NATIONAL WEATHER SERVICE LOUISVILLE KY
600 AM EDT THU JUL 02 2015

NOTE "FAIR" INDICATES FEW OR NO CLOUDS BELOW 12,000 FEET
WITH NO SIGNIFICANT WEATHER AND/OR OBSTRUCTIONS TO VISIBILITY.

KYZ001>023-026-027-061>063-070>075-021100-
WESTERN AND SOUTH CENTRAL KENTUCKY

CITY           SKY/WX    TMP DP  RH WIND       PRES   REMARKS
PADUCAH        LGT RAIN  70  67  90 VRB6      29.85S
HENDERSON      CLOUDY    70  66  88 S6        29.85F
OWENSBORO      TSTM      71  71 100 W10       29.88R FOG
HOPKINSVILLE   TSTM      69  67  94 W3        29.90R FOG
BOWLING GREEN  TSTM      71  68  90 E7        29.88F FOG
GLASGOW        NOT AVBL
$$

KYZ024-025-028>034-038-045-046-053-021100-
NORTH CENTRAL KENTUCKY

CITY           SKY/WX    TMP DP  RH WIND       PRES   REMARKS
LOUISVILLE/SDF CLOUDY    72  68  87 S9        29.87F
LOUISVILLE/LOU CLOUDY    71  69  93 S5        29.88F FOG
FORT KNOX      DRIZZLE   68  66  93 S5        29.87F
$$

KYZ035>037-039>044-047>052-055>060-089>105-021100-
NORTHEAST KENTUCKY

CITY           SKY/WX    TMP DP  RH WIND       PRES   REMARKS
LEXINGTON      LGT RAIN  69  67  93 SW5       29.92R FOG
COVINGTON      CLOUDY    69  67  93 CALM      29.89S FOG
FRANKFORT      LGT RAIN  69  67  93 S6        29.90R FOG
$$

KYZ054-064>069-076>088-106>120-021100-
SOUTHEAST KENTUCKY

CITY           SKY/WX    TMP DP  RH WIND       PRES   REMARKS
JACKSON        CLOUDY    67  65  93 CALM      29.95R FOG
LONDON         CLOUDY    66  62  87 CALM      29.95S FOG
SOMERSET       NOT AVBL
MIDDLESBORO    NOT AVBL
MONTICELLO     CLOUDY    67  67 100 CALM      29.97S FOG
$$




USA.gov is the U.S. government's official web portal to all federal, state and local government web resources and services.